TimeCDT,TemperatureF,Dew PointF,Humidity,Sea Level PressureIn,VisibilityMPH,Wind Direction,Wind SpeedMPH,Gust SpeedMPH,PrecipitationIn,Events,Conditions,WindDirDegrees,DateUTC
12:35 AM,23.0,17.6,80,30.39,9.0,Calm,Calm,-,N/A,,Unknown,0,2012-10-12 05:35:00
12:55 AM,23.0,17.6,80,30.39,8.0,SSE,3.5,-,N/A,,Unknown,160,2012-10-12 05:55:00
1:15 AM,21.2,17.6,86,30.39,9.0,SSE,4.6,-,N/A,,Unknown,160,2012-10-12 06:15:00
1:35 AM,21.2,17.6,86,30.39,10.0,South,5.8,-,N/A,,Clear,180,2012-10-12 06:35:00
1:55 AM,21.2,19.4,93,30.38,10.0,SSE,3.5,-,N/A,,Clear,160,2012-10-12 06:55:00
2:15 AM,21.2,19.4,93,30.39,10.0,South,4.6,-,N/A,,Clear,170,2012-10-12 07:15:00
2:35 AM,21.2,17.6,86,30.38,10.0,South,5.8,-,N/A,,Clear,180,2012-10-12 07:35:00
2:55 AM,19.4,17.6,93,30.38,10.0,South,6.9,-,N/A,,Clear,170,2012-10-12 07:55:00
3:15 AM,21.2,17.6,86,30.37,10.0,SSE,6.9,-,N/A,,Clear,160,2012-10-12 08:15:00
3:55 AM,21.2,19.4,93,30.36,-9999.0,South,6.9,-,N/A,,Unknown,170,2012-10-12 08:55:00
4:15 AM,21.2,19.4,93,30.36,-9999.0,SSE,6.9,-,N/A,,Unknown,160,2012-10-12 09:15:00
4:35 AM,23.0,19.4,86,30.35,10.0,SSE,8.1,-,N/A,,Unknown,150,2012-10-12 09:35:00
4:55 AM,21.2,19.4,93,30.35,10.0,SSE,8.1,-,N/A,,Unknown,160,2012-10-12 09:55:00
5:15 AM,23.0,19.4,86,30.34,10.0,SSE,9.2,-,N/A,,Unknown,160,2012-10-12 10:15:00
5:35 AM,23.0,21.2,93,30.33,10.0,SSE,9.2,-,N/A,,Clear,160,2012-10-12 10:35:00
5:55 AM,24.8,21.2,86,30.33,10.0,South,8.1,-,N/A,,Clear,170,2012-10-12 10:55:00
6:15 AM,23.0,21.2,93,30.32,10.0,SSE,8.1,-,N/A,,Clear,160,2012-10-12 11:15:00
6:35 AM,23.0,19.4,86,30.32,10.0,SSE,8.1,-,N/A,,Clear,160,2012-10-12 11:35:00
6:55 AM,21.2,19.4,93,30.31,10.0,SSE,8.1,-,N/A,,Clear,160,2012-10-12 11:55:00
7:15 AM,19.4,19.4,100,30.31,10.0,SE,8.1,-,N/A,,Clear,140,2012-10-12 12:15:00
7:35 AM,19.4,19.4,100,30.30,10.0,SE,8.1,-,N/A,,Unknown,140,2012-10-12 12:35:00
7:55 AM,21.2,19.4,93,30.30,10.0,SE,8.1,-,N/A,,Unknown,140,2012-10-12 12:55:00
8:15 AM,21.2,19.4,93,30.29,10.0,SE,5.8,-,N/A,,Unknown,140,2012-10-12 13:15:00
8:35 AM,23.0,21.2,93,30.29,10.0,SSE,5.8,-,N/A,,Unknown,160,2012-10-12 13:35:00
8:55 AM,26.6,23.0,86,30.28,10.0,SSE,6.9,-,N/A,,Clear,160,2012-10-12 13:55:00
9:15 AM,28.4,23.0,80,30.27,10.0,SSE,9.2,-,N/A,,Clear,160,2012-10-12 14:15:00
9:35 AM,30.2,23.0,75,30.27,10.0,South,11.5,-,N/A,,Clear,170,2012-10-12 14:35:00
9:55 AM,32.0,24.8,75,30.27,10.0,South,15.0,-,N/A,,Clear,170,2012-10-12 14:55:00
10:15 AM,35.6,24.8,65,30.26,10.0,South,18.4,-,N/A,,Clear,170,2012-10-12 15:15:00
10:35 AM,37.4,24.8,60,30.24,10.0,South,17.3,-,N/A,,Clear,180,2012-10-12 15:35:00
11:15 AM,41.0,23.0,49,30.21,10.0,South,17.3,25.3,N/A,,Clear,170,2012-10-12 16:15:00
11:35 AM,44.6,19.4,37,30.20,10.0,SSE,21.9,32.2,N/A,,Clear,160,2012-10-12 16:35:00
12:15 PM,46.4,17.6,32,30.19,10.0,South,27.6,31.1,N/A,,Clear,190,2012-10-12 17:15:00
12:35 PM,46.4,17.6,32,30.18,10.0,SSE,23.0,29.9,N/A,,Clear,160,2012-10-12 17:35:00
12:55 PM,48.2,15.8,27,30.16,10.0,South,24.2,34.5,N/A,,Clear,170,2012-10-12 17:55:00
1:55 PM,50.0,14.0,24,30.09,10.0,South,25.3,34.5,N/A,,Clear,180,2012-10-12 18:55:00
2:15 PM,50.0,15.8,26,30.07,10.0,South,24.2,33.4,N/A,,Clear,170,2012-10-12 19:15:00
2:55 PM,51.8,15.8,24,30.04,10.0,SSE,28.8,33.4,N/A,,Clear,160,2012-10-12 19:55:00
3:15 PM,53.6,15.8,22,30.02,10.0,South,27.6,35.7,N/A,,Clear,170,2012-10-12 20:15:00
3:35 PM,53.6,15.8,22,30.00,10.0,SSE,27.6,34.5,N/A,,Clear,160,2012-10-12 20:35:00
3:55 PM,53.6,15.8,22,29.98,10.0,SSE,27.6,38.0,N/A,,Clear,160,2012-10-12 20:55:00
4:15 PM,53.6,15.8,22,29.97,10.0,SSE,26.5,33.4,N/A,,Clear,160,2012-10-12 21:15:00
4:35 PM,53.6,15.8,22,29.96,10.0,SSE,25.3,39.1,N/A,,Clear,160,2012-10-12 21:35:00
4:55 PM,53.6,15.8,22,29.95,10.0,SSE,24.2,33.4,N/A,,Clear,160,2012-10-12 21:55:00
5:15 PM,53.6,15.8,22,29.94,10.0,South,24.2,34.5,N/A,,Clear,170,2012-10-12 22:15:00
5:55 PM,53.6,15.8,22,29.93,10.0,South,27.6,33.4,N/A,,Clear,170,2012-10-12 22:55:00
6:15 PM,51.8,17.6,26,29.93,10.0,South,18.4,29.9,N/A,,Clear,170,2012-10-12 23:15:00
6:35 PM,51.8,17.6,26,29.91,10.0,South,21.9,29.9,N/A,,Clear,170,2012-10-12 23:35:00
6:55 PM,50.0,17.6,28,29.90,10.0,SSE,17.3,21.9,N/A,,Clear,160,2012-10-12 23:55:00
7:15 PM,48.2,17.6,30,29.90,10.0,SSE,9.2,-,N/A,,Clear,150,2012-10-13 00:15:00
7:55 PM,44.6,17.6,34,29.87,10.0,SE,11.5,-,N/A,,Clear,140,2012-10-13 00:55:00
8:15 PM,44.6,17.6,34,29.87,10.0,SE,11.5,-,N/A,,Clear,140,2012-10-13 01:15:00